Weather observations for the past three days for
Las Vegas, North Las Vegas Airport
Imperial (Metric)
Date Time (pdt) Wind (mph) Vis. (mi.) Weather Sky Cond. Temperature (ºF) Relative Humidity Wind Chill (°F) Heat Index (°F) Pressure Precipitation (in)
Air Dwpt 6 hour altimeter (in) sea level (mb) 1 hr 3 hr 6 hr
Max. Min.
17 14:53 E 12 10.00 Fair CLR 99 32 9% 94 29.47 996.5
17 13:53 S 13 G 22 10.00 Fair CLR 99 33.1 10% 94 29.49 996.9
17 12:53 SE 12 G 23 10.00 Fair CLR 96.1 32 10% 91 29.52 997.9
17 11:53 Calm 10.00 Fair CLR 93 33.1 12% 89 29.54 998.8
17 10:53 SW 8 10.00 Fair CLR 91 32 91.9 78.1 12% 87 29.55 999.0
17 09:53 NW 5 10.00 Fair CLR 88 32 13% 84 29.55 999.1
17 08:53 Vrbl 3 10.00 Fair CLR 86 33.1 15% 83 29.56 999.4
17 07:53 Calm 10.00 Smoke CLR 82 34 18% 80 29.56 999.4
17 06:53 N 6 10.00 Smoke CLR 80.1 33.1 18% 79 29.55 999.2
17 05:53 E 3 10.00 Smoke CLR 79 32 18% 78 29.54 998.9
17 04:53 Calm 10.00 Smoke CLR 80.1 30.9 93 80.1 17% 78 29.52 998.1
17 03:53 S 8 10.00 Smoke CLR 82 30 15% 80 29.52 997.9
17 02:53 S 15 10.00 Smoke CLR 82.9 28.9 14% 80 29.5 997.5
17 01:53 S 14 10.00 Smoke CLR 84.9 28.9 13% 82 29.51 997.7
17 00:53 S 14 G 23 10.00 Smoke CLR 88 28.9 12% 84 29.53 998.2
16 23:53 S 15 10.00 Smoke CLR 91 27 10% 87 29.53 998.1
16 22:53 SW 14 10.00 Smoke CLR 93 28 104 93 10% 88 29.53 998.1
16 21:53 S 8 10.00 Smoke CLR 93.9 28.9 10% 89 29.53 998.2
16 20:53 SW 13 10.00 Smoke CLR 96.1 28.9 9% 91 29.52 997.9
16 19:53 SW 17 G 25 10.00 Smoke CLR 98.1 26.1 8% 93 29.51 997.7
16 18:53 W 18 10.00 Smoke CLR 100 25 7% 94 29.51 997.6
16 17:53 SW 18 G 23 10.00 Smoke CLR 102.9 26.1 6% 97 29.51 997.6
16 16:53 S 12 G 20 10.00 Smoke CLR 102.9 24.1 102.9 93.9 6% 97 29.53 998.3
16 15:53 S 12 G 22 10.00 Smoke CLR 102 21.9 6% 96 29.56 999.3
16 14:53 S 13 G 20 10.00 Smoke CLR 102 21 5% 96 29.59 1000.4
16 13:53 Vrbl 3 G 20 10.00 Smoke CLR 99 25 7% 93 29.62 1001.3
16 12:53 Vrbl 6 G 17 10.00 Smoke CLR 97 26.1 8% 92 29.64 1002.2
16 11:53 SE 10 10.00 Smoke CLR 96.1 28 9% 91 29.66 1002.8
16 10:53 S 6 10.00 Smoke CLR 93.9 28.9 95 79 10% 89 29.67 1003.0
16 09:53 N 3 8.00 Smoke CLR 93 30 10% 88 29.68 1003.3
16 08:53 SW 3 9.00 Smoke CLR 88 28.9 12% 84 29.68 1003.3
16 07:53 Calm 10.00 Fair CLR 84.9 27 12% 82 29.68 1003.3
16 06:53 NW 9 10.00 Fair CLR 84 27 12% 81 29.66 1002.6
16 05:53 SW 5 10.00 Fair CLR 80.1 26.1 14% 78 29.65 1002.5
16 04:53 NW 7 9.00 Fair CLR 80.1 28.9 93.9 80.1 15% 78 29.64 1002.1
16 03:53 N 7 5.00 Fair with Haze CLR 82 30.9 16% 80 29.62 1001.4
16 02:53 SW 5 5.00 Fair with Haze CLR 84 28.9 13% 81 29.61 1000.9
16 01:53 SE 3 6.00 Fair with Haze CLR 88 30 12% 84 29.62 1001.2
16 00:53 S 16 G 22 10.00 Fair CLR 89.1 28.9 11% 85 29.62 1001.4
15 23:53 SW 16 10.00 Fair CLR 91.9 27 10% 88 29.64 1001.9
15 22:53 S 15 10.00 Fair CLR 93 25 106 93 8% 88 29.66 1002.4
15 21:53 SW 10 G 22 10.00 Fair CLR 97 25 7% 92 29.65 1002.2
15 20:53 S 13 10.00 Fair CLR 99 23 6% 93 29.62 1001.4
15 19:53 SW 12 10.00 Fair CLR 102 25 6% 96 29.61 1001.0
15 18:53 SW 14 10.00 Fair CLR 102.9 27 7% 97 29.61 1000.9
15 17:53 SW 16 G 26 10.00 Fair CLR 105.1 26.1 6% 98 29.61 1001.0
15 16:53 SW 13 G 22 10.00 Fair CLR 106 30 108 99 7% 99 29.61 1001.0
15 15:53 SW 16 G 24 10.00 Fair CLR 107.1 30 7% 100 29.64 1001.8
15 14:53 S 15 G 24 10.00 Fair CLR 107.1 30.9 7% 100 29.66 1002.4
15 13:53 Calm 10.00 Fair CLR 105.1 30.9 7% 99 29.69 1003.4
15 12:53 Vrbl 5 10.00 Fair CLR 102 33.1 9% 96 29.72 1004.4
15 11:53 SW 7 10.00 Fair CLR 100.9 33.1 9% 95 29.74 1005.4
15 10:53 Calm 10.00 Fair CLR 99 33.1 99 80.1 10% 94 29.75 1005.7
15 09:53 SW 9 10.00 Fair CLR 95 34 12% 90 29.76 1006.0
15 08:53 SW 7 10.00 Fair CLR 91 34 13% 87 29.77 1006.3
15 07:53 Calm 10.00 Fair CLR 86 36 17% 83 29.78 1006.7
15 06:53 N 7 10.00 Fair CLR 82.9 37 19% 80 29.77 1006.5
15 05:53 N 5 10.00 Fair CLR 81 35.1 19% 79 29.76 1006.1
15 04:53 NE 3 10.00 Fair CLR 81 33.1 97 80.1 18% 79 29.75 1006.0
15 03:53 W 5 10.00 Fair CLR 84 34 17% 81 29.74 1005.5
15 02:53 Vrbl 6 10.00 Fair CLR 88 35.1 15% 84 29.74 1005.3
15 01:53 Calm 10.00 Fair CLR 89.1 34 14% 85 29.75 1005.6
15 00:53 SW 8 G 17 10.00 Fair CLR 95 34 12% 90 29.75 1005.4
14 23:53 Calm 10.00 Fair CLR 91 30.9 12% 87 29.76 1006.0
14 22:53 SW 7 10.00 Fair CLR 97 30 106 96.1 9% 92 29.77 1006.1
14 21:53 SW 9 10.00 Fair CLR 98.1 28.9 9% 93 29.77 1006.1
14 20:53 SW 10 10.00 Fair CLR 100 30 8% 95 29.75 1005.7
14 19:53 SW 14 10.00 Fair CLR 102.9 30.9 8% 97 29.74 1005.6
14 18:53 S 12 10.00 Fair CLR 105.1 32 8% 99 29.75 1005.7
14 17:53 SW 8 10.00 Fair CLR 106 32 8% 100 29.75 1005.7
14 16:53 S 8 10.00 Fair CLR 105.1 30 106 97 7% 99 29.77 1006.5
14 15:53 SW 13 G 20 10.00 Fair CLR 106 30.9 7% 100 29.79 1007.2
Date Time (pdt) Wind (mph) Vis. (mi.) Weather Sky Cond. Air Dwpt Max. Min. Relative Humidity Wind Chill (°F) Heat Index (°F) altimeter (in) sea level (mb) 1 hr 3 hr 6 hr
6 hour
Temperature (ºF) Pressure Precipitation (in)